owner,sensor,date,latitude,longitude,vertical_datum,wind_speed,wind_to_direction,wind_speed_of_gust,qcFlag 
LOOP,urn:ioos:station:wmo:lopl1:1,2012-07-01T00:11:00Z,28.8850,-90.0250,10.0,5.1,218.0,5.9,'11111222,11111222,11111222' 
LOOP,urn:ioos:station:wmo:lopl1:1,2012-07-01T00:26:00Z,28.8850,-90.0250,10.0,4.6,216.0,5.3,'11111222,11111222,11111222' 
LOOP,urn:ioos:station:wmo:lopl1:1,2012-07-01T00:41:00Z,28.8850,-90.0250,10.0,4.6,210.0,5.4,'11111222,11111222,11111222' 
LOOP,urn:ioos:station:wmo:lopl1:1,2012-07-01T00:56:00Z,28.8850,-90.0250,10.0,4.5,214.0,5.9,'11111222,11111222,11111222' 
LOOP,urn:ioos:station:wmo:lopl1:1,2012-07-01T01:11:00Z,28.8850,-90.0250,10.0,4.0,202.0,5.3,'11111222,11111222,11111222' 
LOOP,urn:ioos:station:wmo:lopl1:1,2012-07-01T01:26:00Z,28.8850,-90.0250,10.0,3.8,212.0,4.9,'11111222,11111222,11111222' 
LOOP,urn:ioos:station:wmo:lopl1:1,2012-07-01T01:46:00Z,28.8850,-90.0250,10.0,3.8,206.0,4.5,'11111222,11111222,11111222' 
LOOP,urn:ioos:station:wmo:lopl1:1,2012-07-01T02:01:00Z,28.8850,-90.0250,10.0,3.1,194.0,4.0,'11111222,11111222,11111222' 
LOOP,urn:ioos:station:wmo:lopl1:1,2012-07-01T02:16:00Z,28.8850,-90.0250,10.0,2.8,206.0,3.4,'11111222,11111222,11111222' 
LOOP,urn:ioos:station:wmo:lopl1:1,2012-07-01T02:31:00Z,28.8850,-90.0250,10.0,2.3,192.0,3.2,'11111222,11111222,11111222' 
LOOP,urn:ioos:station:wmo:lopl1:1,2012-07-01T02:46:00Z,28.8850,-90.0250,10.0,2.1,197.0,2.5,'11111222,11111222,11111222' 
LOOP,urn:ioos:station:wmo:lopl1:1,2012-07-01T03:01:00Z,28.8850,-90.0250,10.0,2.2,190.0,2.8,'11111222,11111222,11111222' 
LOOP,urn:ioos:station:wmo:lopl1:1,2012-07-01T03:16:00Z,28.8850,-90.0250,10.0,2.6,203.0,3.2,'11111222,11111222,11111222' 
LOOP,urn:ioos:station:wmo:lopl1:1,2012-07-01T03:31:00Z,28.8850,-90.0250,10.0,2.5,197.0,3.5,'11111222,11111222,11111222' 
LOOP,urn:ioos:station:wmo:lopl1:1,2012-07-01T03:46:00Z,28.8850,-90.0250,10.0,2.3,197.0,3.2,'11111222,11111222,11111222' 
LOOP,urn:ioos:station:wmo:lopl1:1,2012-07-01T04:01:00Z,28.8850,-90.0250,10.0,2.8,182.0,3.9,'11111222,11111222,11111222' 
LOOP,urn:ioos:station:wmo:lopl1:1,2012-07-01T04:16:00Z,28.8850,-90.0250,10.0,2.8,199.0,3.4,'11111222,11111222,11111222' 
LOOP,urn:ioos:station:wmo:lopl1:1,2012-07-01T04:31:00Z,28.8850,-90.0250,10.0,2.8,189.0,3.8,'11111222,11111222,11111222' 
LOOP,urn:ioos:station:wmo:lopl1:1,2012-07-01T04:46:00Z,28.8850,-90.0250,10.0,3.2,182.0,4.5,'11111222,11111222,11111222' 
LOOP,urn:ioos:station:wmo:lopl1:1,2012-07-01T05:01:00Z,28.8850,-90.0250,10.0,4.2,193.0,5.0,'11111222,11111222,11111222' 
LOOP,urn:ioos:station:wmo:lopl1:1,2012-07-01T05:16:00Z,28.8850,-90.0250,10.0,4.0,180.0,4.5,'11111222,11111222,11111222' 
LOOP,urn:ioos:station:wmo:lopl1:1,2012-07-01T05:31:00Z,28.8850,-90.0250,10.0,3.9,185.0,5.1,'11111222,11111222,11111222' 
LOOP,urn:ioos:station:wmo:lopl1:1,2012-07-01T05:46:00Z,28.8850,-90.0250,10.0,4.1,187.0,5.6,'11111222,11111222,11111222' 
LOOP,urn:ioos:station:wmo:lopl1:1,2012-07-01T06:06:00Z,28.8850,-90.0250,10.0,4.9,193.0,6.1,'11111222,11111222,11111222' 
LOOP,urn:ioos:station:wmo:lopl1:1,2012-07-01T06:21:00Z,28.8850,-90.0250,10.0,4.3,188.0,5.2,'11111222,11111222,11111222' 
LOOP,urn:ioos:station:wmo:lopl1:1,2012-07-01T06:36:00Z,28.8850,-90.0250,10.0,4.3,183.0,5.2,'11111222,11111222,11111222' 
LOOP,urn:ioos:station:wmo:lopl1:1,2012-07-01T06:51:00Z,28.8850,-90.0250,10.0,4.4,188.0,5.7,'11111222,11111222,11111222' 
LOOP,urn:ioos:station:wmo:lopl1:1,2012-07-01T07:06:00Z,28.8850,-90.0250,10.0,4.5,180.0,5.3,'11111222,11111222,11111222' 
LOOP,urn:ioos:station:wmo:lopl1:1,2012-07-01T07:21:00Z,28.8850,-90.0250,10.0,4.0,187.0,5.0,'11111222,11111222,11111222' 
LOOP,urn:ioos:station:wmo:lopl1:1,2012-07-01T07:36:00Z,28.8850,-90.0250,10.0,4.3,181.0,4.9,'11111222,11111222,11111222' 
LOOP,urn:ioos:station:wmo:lopl1:1,2012-07-01T07:51:00Z,28.8850,-90.0250,10.0,4.5,184.0,5.2,'11111222,11111222,11111222' 
LOOP,urn:ioos:station:wmo:lopl1:1,2012-07-01T08:06:00Z,28.8850,-90.0250,10.0,4.1,183.0,5.3,'11111222,11111222,11111222' 
LOOP,urn:ioos:station:wmo:lopl1:1,2012-07-01T08:21:00Z,28.8850,-90.0250,10.0,4.0,184.0,5.3,'11111222,11111222,11111222' 
LOOP,urn:ioos:station:wmo:lopl1:1,2012-07-01T08:36:00Z,28.8850,-90.0250,10.0,4.3,180.0,5.0,'11111222,11111222,11111222' 
LOOP,urn:ioos:station:wmo:lopl1:1,2012-07-01T08:51:00Z,28.8850,-90.0250,10.0,4.3,191.0,5.5,'11111222,11111222,11111222' 
LOOP,urn:ioos:station:wmo:lopl1:1,2012-07-01T09:06:00Z,28.8850,-90.0250,10.0,4.5,194.0,5.4,'11111222,11111222,11111222' 
LOOP,urn:ioos:station:wmo:lopl1:1,2012-07-01T09:21:00Z,28.8850,-90.0250,10.0,3.8,195.0,4.8,'11111222,11111222,11111222' 
LOOP,urn:ioos:station:wmo:lopl1:1,2012-07-01T09:36:00Z,28.8850,-90.0250,10.0,4.4,196.0,5.5,'11111222,11111222,11111222' 
LOOP,urn:ioos:station:wmo:lopl1:1,2012-07-01T09:51:00Z,28.8850,-90.0250,10.0,4.7,201.0,5.6,'11111222,11111222,11111222' 
LOOP,urn:ioos:station:wmo:lopl1:1,2012-07-01T10:06:00Z,28.8850,-90.0250,10.0,4.8,205.0,5.5,'11111222,11111222,11111222' 
LOOP,urn:ioos:station:wmo:lopl1:1,2012-07-01T10:21:00Z,28.8850,-90.0250,10.0,4.8,201.0,5.5,'11111222,11111222,11111222' 
LOOP,urn:ioos:station:wmo:lopl1:1,2012-07-01T10:36:00Z,28.8850,-90.0250,10.0,5.0,205.0,5.5,'11111222,11111222,11111222' 
LOOP,urn:ioos:station:wmo:lopl1:1,2012-07-01T10:51:00Z,28.8850,-90.0250,10.0,4.7,205.0,5.3,'11111222,11111222,11111222' 
LOOP,urn:ioos:station:wmo:lopl1:1,2012-07-01T11:06:00Z,28.8850,-90.0250,10.0,4.5,201.0,5.4,'11111222,11111222,11111222' 
LOOP,urn:ioos:station:wmo:lopl1:1,2012-07-01T11:26:00Z,28.8850,-90.0250,10.0,4.4,206.0,4.9,'11111222,11111222,11111222' 
LOOP,urn:ioos:station:wmo:lopl1:1,2012-07-01T11:41:00Z,28.8850,-90.0250,10.0,4.3,208.0,5.2,'11111222,11111222,11111222' 
LOOP,urn:ioos:station:wmo:lopl1:1,2012-07-01T11:56:00Z,28.8850,-90.0250,10.0,3.7,206.0,4.3,'11111222,11111222,11111222' 
LOOP,urn:ioos:station:wmo:lopl1:1,2012-07-01T12:11:00Z,28.8850,-90.0250,10.0,3.9,197.0,4.5,'11111222,11111222,11111222' 
LOOP,urn:ioos:station:wmo:lopl1:1,2012-07-01T12:26:00Z,28.8850,-90.0250,10.0,3.9,204.0,4.6,'11111222,11111222,11111222' 
LOOP,urn:ioos:station:wmo:lopl1:1,2012-07-01T12:41:00Z,28.8850,-90.0250,10.0,4.6,212.0,5.4,'11111222,11111222,11111222' 
LOOP,urn:ioos:station:wmo:lopl1:1,2012-07-01T12:56:00Z,28.8850,-90.0250,10.0,4.9,217.0,5.7,'11111222,11111222,11111222' 
LOOP,urn:ioos:station:wmo:lopl1:1,2012-07-01T13:11:00Z,28.8850,-90.0250,10.0,5.2,221.0,5.9,'11111222,11111222,11111222' 
LOOP,urn:ioos:station:wmo:lopl1:1,2012-07-01T13:26:00Z,28.8850,-90.0250,10.0,5.0,225.0,5.9,'11111222,11111222,11111222' 
LOOP,urn:ioos:station:wmo:lopl1:1,2012-07-01T13:41:00Z,28.8850,-90.0250,10.0,4.8,228.0,5.6,'11111222,11111222,11111222' 
LOOP,urn:ioos:station:wmo:lopl1:1,2012-07-01T13:56:00Z,28.8850,-90.0250,10.0,4.9,219.0,6.0,'11111222,11111222,11111222' 
LOOP,urn:ioos:station:wmo:lopl1:1,2012-07-01T14:11:00Z,28.8850,-90.0250,10.0,5.0,218.0,5.5,'11111222,11111222,11111222' 
LOOP,urn:ioos:station:wmo:lopl1:1,2012-07-01T14:26:00Z,28.8850,-90.0250,10.0,5.1,220.0,5.8,'11111222,11111222,11111222' 
LOOP,urn:ioos:station:wmo:lopl1:1,2012-07-01T14:41:00Z,28.8850,-90.0250,10.0,4.9,225.0,5.6,'11111222,11111222,11111222' 
LOOP,urn:ioos:station:wmo:lopl1:1,2012-07-01T14:56:00Z,28.8850,-90.0250,10.0,5.1,223.0,6.2,'11111222,11111222,11111222' 
LOOP,urn:ioos:station:wmo:lopl1:1,2012-07-01T15:16:00Z,28.8850,-90.0250,10.0,5.3,220.0,6.2,'11111222,11111222,11111222' 
LOOP,urn:ioos:station:wmo:lopl1:1,2012-07-01T15:31:00Z,28.8850,-90.0250,10.0,4.7,217.0,5.7,'11111222,11111222,11111222' 
LOOP,urn:ioos:station:wmo:lopl1:1,2012-07-01T15:46:00Z,28.8850,-90.0250,10.0,4.6,207.0,5.3,'11111222,11111222,11111222' 
LOOP,urn:ioos:station:wmo:lopl1:1,2012-07-01T16:01:00Z,28.8850,-90.0250,10.0,4.2,210.0,4.7,'11111222,11111222,11111222' 
LOOP,urn:ioos:station:wmo:lopl1:1,2012-07-01T16:16:00Z,28.8850,-90.0250,10.0,3.6,197.0,4.3,'11111222,11111222,11111222' 
LOOP,urn:ioos:station:wmo:lopl1:1,2012-07-01T16:31:00Z,28.8850,-90.0250,10.0,3.5,188.0,4.6,'11111222,11111222,11111222' 
LOOP,urn:ioos:station:wmo:lopl1:1,2012-07-01T16:46:00Z,28.8850,-90.0250,10.0,3.8,196.0,4.9,'11111222,11111222,11111222' 
LOOP,urn:ioos:station:wmo:lopl1:1,2012-07-01T17:01:00Z,28.8850,-90.0250,10.0,4.3,201.0,5.4,'11111222,11111222,11111222' 
LOOP,urn:ioos:station:wmo:lopl1:1,2012-07-01T17:16:00Z,28.8850,-90.0250,10.0,4.5,197.0,5.4,'11111222,11111222,11111222' 
LOOP,urn:ioos:station:wmo:lopl1:1,2012-07-01T17:31:00Z,28.8850,-90.0250,10.0,4.6,212.0,5.7,'11111222,11111222,11111222' 
LOOP,urn:ioos:station:wmo:lopl1:1,2012-07-01T17:51:00Z,28.8850,-90.0250,10.0,4.8,209.0,5.8,'11111222,11111222,11111222' 
LOOP,urn:ioos:station:wmo:lopl1:1,2012-07-01T18:06:00Z,28.8850,-90.0250,10.0,5.0,205.0,6.1,'11111222,11111222,11111222' 
LOOP,urn:ioos:station:wmo:lopl1:1,2012-07-01T18:21:00Z,28.8850,-90.0250,10.0,5.3,205.0,6.1,'11111222,11111222,11111222' 
LOOP,urn:ioos:station:wmo:lopl1:1,2012-07-01T18:36:00Z,28.8850,-90.0250,10.0,5.2,213.0,6.4,'11111222,11111222,11111222' 
LOOP,urn:ioos:station:wmo:lopl1:1,2012-07-01T18:51:00Z,28.8850,-90.0250,10.0,4.4,225.0,5.8,'11111222,11111222,11111222' 
LOOP,urn:ioos:station:wmo:lopl1:1,2012-07-01T19:06:00Z,28.8850,-90.0250,10.0,4.9,230.0,6.3,'11111222,11111222,11111222' 
LOOP,urn:ioos:station:wmo:lopl1:1,2012-07-01T19:21:00Z,28.8850,-90.0250,10.0,4.1,222.0,5.2,'11111222,11111222,11111222' 
LOOP,urn:ioos:station:wmo:lopl1:1,2012-07-01T19:36:00Z,28.8850,-90.0250,10.0,4.6,222.0,5.8,'11111222,11111222,11111222' 
LOOP,urn:ioos:station:wmo:lopl1:1,2012-07-01T19:51:00Z,28.8850,-90.0250,10.0,4.6,225.0,5.5,'11111222,11111222,11111222' 
LOOP,urn:ioos:station:wmo:lopl1:1,2012-07-01T20:06:00Z,28.8850,-90.0250,10.0,3.9,226.0,4.8,'11111222,11111222,11111222' 
LOOP,urn:ioos:station:wmo:lopl1:1,2012-07-01T20:21:00Z,28.8850,-90.0250,10.0,3.7,235.0,5.0,'11111222,11111222,11111222' 
LOOP,urn:ioos:station:wmo:lopl1:1,2012-07-01T20:36:00Z,28.8850,-90.0250,10.0,4.1,224.0,5.1,'11111222,11111222,11111222' 
LOOP,urn:ioos:station:wmo:lopl1:1,2012-07-01T20:51:00Z,28.8850,-90.0250,10.0,3.6,238.0,4.8,'11111222,11111222,11111222' 
LOOP,urn:ioos:station:wmo:lopl1:1,2012-07-01T21:06:00Z,28.8850,-90.0250,10.0,4.1,233.0,5.6,'11111222,11111222,11111222' 
LOOP,urn:ioos:station:wmo:lopl1:1,2012-07-01T21:21:00Z,28.8850,-90.0250,10.0,3.4,244.0,4.7,'11111222,11111222,11111222' 
LOOP,urn:ioos:station:wmo:lopl1:1,2012-07-01T21:36:00Z,28.8850,-90.0250,10.0,3.5,248.0,4.9,'11111222,11111222,11111222' 
LOOP,urn:ioos:station:wmo:lopl1:1,2012-07-01T21:51:00Z,28.8850,-90.0250,10.0,3.7,235.0,4.9,'11111222,11111222,11111222' 
LOOP,urn:ioos:station:wmo:lopl1:1,2012-07-01T22:11:00Z,28.8850,-90.0250,10.0,3.8,241.0,4.9,'11111222,11111222,11111222' 
LOOP,urn:ioos:station:wmo:lopl1:1,2012-07-01T22:26:00Z,28.8850,-90.0250,10.0,4.2,226.0,5.6,'11111222,11111222,11111222' 
LOOP,urn:ioos:station:wmo:lopl1:1,2012-07-01T22:56:00Z,28.8850,-90.0250,10.0,3.8,242.0,4.9,'11111222,11111222,11111222' 
LOOP,urn:ioos:station:wmo:lopl1:1,2012-07-01T23:11:00Z,28.8850,-90.0250,10.0,4.5,230.0,5.9,'11111222,11111222,11111222' 
LOOP,urn:ioos:station:wmo:lopl1:1,2012-07-01T23:26:00Z,28.8850,-90.0250,10.0,4.2,229.0,5.5,'11111222,11111222,11111222' 
LOOP,urn:ioos:station:wmo:lopl1:1,2012-07-01T23:41:00Z,28.8850,-90.0250,10.0,3.9,241.0,5.1,'11111222,11111222,11111222' 
LOOP,urn:ioos:station:wmo:lopl1:1,2012-07-01T23:56:00Z,28.8850,-90.0250,10.0,3.8,244.0,4.9,'11111222,11111222,11111222' 
LOOP,urn:ioos:station:wmo:lopl1:1,2012-07-02T00:11:00Z,28.8850,-90.0250,10.0,3.4,244.0,5.1,'11111222,11111222,11111222' 
LOOP,urn:ioos:station:wmo:lopl1:1,2012-07-02T00:26:00Z,28.8850,-90.0250,10.0,3.6,240.0,5.1,'11111222,11111222,11111222' 
LOOP,urn:ioos:station:wmo:lopl1:1,2012-07-02T00:41:00Z,28.8850,-90.0250,10.0,3.6,250.0,4.6,'11111222,11111222,11111222' 
LOOP,urn:ioos:station:wmo:lopl1:1,2012-07-02T00:56:00Z,28.8850,-90.0250,10.0,3.5,249.0,4.4,'11111222,11111222,11111222' 
LOOP,urn:ioos:station:wmo:lopl1:1,2012-07-02T01:11:00Z,28.8850,-90.0250,10.0,3.6,259.0,4.7,'11111222,11111222,11111222' 
LOOP,urn:ioos:station:wmo:lopl1:1,2012-07-02T01:26:00Z,28.8850,-90.0250,10.0,3.4,260.0,4.9,'11111222,11111222,11111222' 
LOOP,urn:ioos:station:wmo:lopl1:1,2012-07-02T01:41:00Z,28.8850,-90.0250,10.0,3.2,248.0,4.8,'11111222,11111222,11111222' 
LOOP,urn:ioos:station:wmo:lopl1:1,2012-07-02T01:56:00Z,28.8850,-90.0250,10.0,3.4,236.0,4.3,'11111222,11111222,11111222' 
LOOP,urn:ioos:station:wmo:lopl1:1,2012-07-02T02:11:00Z,28.8850,-90.0250,10.0,3.3,246.0,4.5,'11111222,11111222,11111222' 
LOOP,urn:ioos:station:wmo:lopl1:1,2012-07-02T02:26:00Z,28.8850,-90.0250,10.0,2.8,251.0,4.0,'11111222,11111222,11111222' 
LOOP,urn:ioos:station:wmo:lopl1:1,2012-07-02T02:41:00Z,28.8850,-90.0250,10.0,3.0,247.0,3.8,'11111222,11111222,11111222' 
LOOP,urn:ioos:station:wmo:lopl1:1,2012-07-02T02:56:00Z,28.8850,-90.0250,10.0,3.0,233.0,4.0,'11111222,11111222,11111222' 
LOOP,urn:ioos:station:wmo:lopl1:1,2012-07-02T03:11:00Z,28.8850,-90.0250,10.0,2.6,232.0,3.5,'11111222,11111222,11111222' 
LOOP,urn:ioos:station:wmo:lopl1:1,2012-07-02T03:31:00Z,28.8850,-90.0250,10.0,3.2,227.0,4.0,'11111222,11111222,11111222' 
LOOP,urn:ioos:station:wmo:lopl1:1,2012-07-02T03:46:00Z,28.8850,-90.0250,10.0,2.7,244.0,3.6,'11111222,11111222,11111222' 
LOOP,urn:ioos:station:wmo:lopl1:1,2012-07-02T04:01:00Z,28.8850,-90.0250,10.0,2.9,245.0,4.0,'11111222,11111222,11111222' 
LOOP,urn:ioos:station:wmo:lopl1:1,2012-07-02T04:16:00Z,28.8850,-90.0250,10.0,2.8,242.0,3.7,'11111222,11111222,11111222' 
LOOP,urn:ioos:station:wmo:lopl1:1,2012-07-02T04:31:00Z,28.8850,-90.0250,10.0,2.7,256.0,3.7,'11111222,11111222,11111222' 
LOOP,urn:ioos:station:wmo:lopl1:1,2012-07-02T04:46:00Z,28.8850,-90.0250,10.0,2.8,245.0,3.9,'11111222,11111222,11111222' 
LOOP,urn:ioos:station:wmo:lopl1:1,2012-07-02T05:01:00Z,28.8850,-90.0250,10.0,3.3,252.0,3.9,'11111222,11111222,11111222' 
LOOP,urn:ioos:station:wmo:lopl1:1,2012-07-02T05:16:00Z,28.8850,-90.0250,10.0,2.7,233.0,3.7,'11111222,11111222,11111222' 
LOOP,urn:ioos:station:wmo:lopl1:1,2012-07-02T05:31:00Z,28.8850,-90.0250,10.0,2.6,247.0,3.4,'11111222,11111222,11111222' 
LOOP,urn:ioos:station:wmo:lopl1:1,2012-07-02T05:46:00Z,28.8850,-90.0250,10.0,2.1,255.0,3.2,'11111222,11111222,11111222' 
LOOP,urn:ioos:station:wmo:lopl1:1,2012-07-02T06:01:00Z,28.8850,-90.0250,10.0,2.1,238.0,3.2,'11111222,11111222,11111222' 
LOOP,urn:ioos:station:wmo:lopl1:1,2012-07-02T06:16:00Z,28.8850,-90.0250,10.0,2.5,242.0,3.5,'11111222,11111222,11111222' 
LOOP,urn:ioos:station:wmo:lopl1:1,2012-07-02T06:31:00Z,28.8850,-90.0250,10.0,2.0,242.0,2.6,'11111222,11111222,11111222' 
LOOP,urn:ioos:station:wmo:lopl1:1,2012-07-02T06:46:00Z,28.8850,-90.0250,10.0,2.4,258.0,3.1,'11111222,11111222,11111222' 
LOOP,urn:ioos:station:wmo:lopl1:1,2012-07-02T07:06:00Z,28.8850,-90.0250,10.0,2.7,259.0,3.6,'11111222,11111222,11111222' 
LOOP,urn:ioos:station:wmo:lopl1:1,2012-07-02T07:21:00Z,28.8850,-90.0250,10.0,2.3,246.0,3.3,'11111222,11111222,11111222' 
LOOP,urn:ioos:station:wmo:lopl1:1,2012-07-02T07:36:00Z,28.8850,-90.0250,10.0,2.0,245.0,3.0,'11111222,11111222,11111222' 
LOOP,urn:ioos:station:wmo:lopl1:1,2012-07-02T07:51:00Z,28.8850,-90.0250,10.0,1.7,246.0,2.7,'11111222,11111222,11111222' 
LOOP,urn:ioos:station:wmo:lopl1:1,2012-07-02T08:06:00Z,28.8850,-90.0250,10.0,2.2,226.0,2.8,'11111222,11111222,11111222' 
LOOP,urn:ioos:station:wmo:lopl1:1,2012-07-02T08:21:00Z,28.8850,-90.0250,10.0,2.3,228.0,3.3,'11111222,11111222,11111222' 
LOOP,urn:ioos:station:wmo:lopl1:1,2012-07-02T08:36:00Z,28.8850,-90.0250,10.0,2.9,219.0,3.6,'11111222,11111222,11111222' 
LOOP,urn:ioos:station:wmo:lopl1:1,2012-07-02T08:51:00Z,28.8850,-90.0250,10.0,2.5,231.0,3.4,'11111222,11111222,11111222' 
LOOP,urn:ioos:station:wmo:lopl1:1,2012-07-02T09:06:00Z,28.8850,-90.0250,10.0,2.3,221.0,3.0,'11111222,11111222,11111222' 
LOOP,urn:ioos:station:wmo:lopl1:1,2012-07-02T09:21:00Z,28.8850,-90.0250,10.0,2.2,235.0,3.0,'11111222,11111222,11111222' 
LOOP,urn:ioos:station:wmo:lopl1:1,2012-07-02T09:36:00Z,28.8850,-90.0250,10.0,2.2,239.0,3.0,'11111222,11111222,11111222' 
LOOP,urn:ioos:station:wmo:lopl1:1,2012-07-02T09:51:00Z,28.8850,-90.0250,10.0,2.5,231.0,3.5,'11111222,11111222,11111222' 
LOOP,urn:ioos:station:wmo:lopl1:1,2012-07-02T10:06:00Z,28.8850,-90.0250,10.0,2.7,231.0,3.5,'11111222,11111222,11111222' 
LOOP,urn:ioos:station:wmo:lopl1:1,2012-07-02T10:21:00Z,28.8850,-90.0250,10.0,2.7,235.0,3.6,'11111222,11111222,11111222' 
LOOP,urn:ioos:station:wmo:lopl1:1,2012-07-02T10:36:00Z,28.8850,-90.0250,10.0,2.4,237.0,3.6,'11111222,11111222,11111222' 
LOOP,urn:ioos:station:wmo:lopl1:1,2012-07-02T10:51:00Z,28.8850,-90.0250,10.0,1.9,237.0,2.6,'11111222,11111222,11111222' 
LOOP,urn:ioos:station:wmo:lopl1:1,2012-07-02T11:06:00Z,28.8850,-90.0250,10.0,2.1,229.0,3.0,'11111222,11111222,11111222' 
LOOP,urn:ioos:station:wmo:lopl1:1,2012-07-02T11:26:00Z,28.8850,-90.0250,10.0,2.2,231.0,3.1,'11111222,11111222,11111222' 
LOOP,urn:ioos:station:wmo:lopl1:1,2012-07-02T11:41:00Z,28.8850,-90.0250,10.0,2.6,219.0,3.4,'11111222,11111222,11111222' 
LOOP,urn:ioos:station:wmo:lopl1:1,2012-07-02T11:56:00Z,28.8850,-90.0250,10.0,2.9,237.0,3.6,'11111222,11111222,11111222' 
LOOP,urn:ioos:station:wmo:lopl1:1,2012-07-02T12:11:00Z,28.8850,-90.0250,10.0,3.1,230.0,4.0,'11111222,11111222,11111222' 
LOOP,urn:ioos:station:wmo:lopl1:1,2012-07-02T12:26:00Z,28.8850,-90.0250,10.0,2.8,239.0,4.5,'11111222,11111222,11111222' 
LOOP,urn:ioos:station:wmo:lopl1:1,2012-07-02T12:41:00Z,28.8850,-90.0250,10.0,2.5,238.0,3.9,'11111222,11111222,11111222' 
LOOP,urn:ioos:station:wmo:lopl1:1,2012-07-02T12:56:00Z,28.8850,-90.0250,10.0,2.7,240.0,4.1,'11111222,11111222,11111222' 
LOOP,urn:ioos:station:wmo:lopl1:1,2012-07-02T13:11:00Z,28.8850,-90.0250,10.0,2.9,252.0,4.0,'11111222,11111222,11111222' 
LOOP,urn:ioos:station:wmo:lopl1:1,2012-07-02T13:26:00Z,28.8850,-90.0250,10.0,2.3,257.0,3.5,'11111222,11111222,11111222' 
LOOP,urn:ioos:station:wmo:lopl1:1,2012-07-02T13:41:00Z,28.8850,-90.0250,10.0,2.5,235.0,3.3,'11111222,11111222,11111222' 
LOOP,urn:ioos:station:wmo:lopl1:1,2012-07-02T13:56:00Z,28.8850,-90.0250,10.0,2.6,280.0,3.6,'11111222,11111222,11111222' 
LOOP,urn:ioos:station:wmo:lopl1:1,2012-07-02T14:11:00Z,28.8850,-90.0250,10.0,2.4,282.0,3.2,'11111222,11111222,11111222' 
LOOP,urn:ioos:station:wmo:lopl1:1,2012-07-02T14:26:00Z,28.8850,-90.0250,10.0,2.3,286.0,3.0,'11111222,11111222,11111222' 
LOOP,urn:ioos:station:wmo:lopl1:1,2012-07-02T14:41:00Z,28.8850,-90.0250,10.0,2.1,274.0,2.7,'11111222,11111222,11111222' 
LOOP,urn:ioos:station:wmo:lopl1:1,2012-07-02T15:01:00Z,28.8850,-90.0250,10.0,2.5,286.0,3.2,'11111222,11111222,11111222' 
LOOP,urn:ioos:station:wmo:lopl1:1,2012-07-02T15:16:00Z,28.8850,-90.0250,10.0,2.5,300.0,3.4,'11111222,11111222,11111222' 
LOOP,urn:ioos:station:wmo:lopl1:1,2012-07-02T15:31:00Z,28.8850,-90.0250,10.0,2.5,298.0,3.5,'11111222,11111222,11111222' 
LOOP,urn:ioos:station:wmo:lopl1:1,2012-07-02T15:46:00Z,28.8850,-90.0250,10.0,3.0,309.0,3.5,'11111222,11111222,11111222' 
LOOP,urn:ioos:station:wmo:lopl1:1,2012-07-02T16:01:00Z,28.8850,-90.0250,10.0,2.8,304.0,3.8,'11111222,11111222,11111222' 
LOOP,urn:ioos:station:wmo:lopl1:1,2012-07-02T16:16:00Z,28.8850,-90.0250,10.0,2.3,308.0,3.2,'11111222,11111222,11111222' 
LOOP,urn:ioos:station:wmo:lopl1:1,2012-07-02T16:31:00Z,28.8850,-90.0250,10.0,3.0,296.0,3.6,'11111222,11111222,11111222' 
LOOP,urn:ioos:station:wmo:lopl1:1,2012-07-02T16:46:00Z,28.8850,-90.0250,10.0,2.4,293.0,3.5,'11111222,11111222,11111222' 
LOOP,urn:ioos:station:wmo:lopl1:1,2012-07-02T17:01:00Z,28.8850,-90.0250,10.0,2.5,275.0,4.3,'11111222,11111222,11111222' 
LOOP,urn:ioos:station:wmo:lopl1:1,2012-07-02T17:16:00Z,28.8850,-90.0250,10.0,2.5,261.0,3.5,'11111222,11111222,11111222' 
LOOP,urn:ioos:station:wmo:lopl1:1,2012-07-02T17:31:00Z,28.8850,-90.0250,10.0,2.3,315.0,2.9,'11111222,11111222,11111222' 
LOOP,urn:ioos:station:wmo:lopl1:1,2012-07-02T17:46:00Z,28.8850,-90.0250,10.0,2.7,294.0,4.0,'11111222,11111222,11111222' 
LOOP,urn:ioos:station:wmo:lopl1:1,2012-07-02T18:01:00Z,28.8850,-90.0250,10.0,3.2,303.0,4.5,'11111222,11111222,11111222' 
LOOP,urn:ioos:station:wmo:lopl1:1,2012-07-02T18:16:00Z,28.8850,-90.0250,10.0,2.6,302.0,4.2,'11111222,11111222,11111222' 
LOOP,urn:ioos:station:wmo:lopl1:1,2012-07-02T18:36:00Z,28.8850,-90.0250,10.0,2.5,294.0,3.7,'11111222,11111222,11111222' 
LOOP,urn:ioos:station:wmo:lopl1:1,2012-07-02T18:51:00Z,28.8850,-90.0250,10.0,2.8,284.0,4.1,'11111222,11111222,11111222' 
LOOP,urn:ioos:station:wmo:lopl1:1,2012-07-02T19:06:00Z,28.8850,-90.0250,10.0,2.6,281.0,3.3,'11111222,11111222,11111222' 
LOOP,urn:ioos:station:wmo:lopl1:1,2012-07-02T19:21:00Z,28.8850,-90.0250,10.0,2.9,260.0,4.1,'11111222,11111222,11111222' 
LOOP,urn:ioos:station:wmo:lopl1:1,2012-07-02T19:36:00Z,28.8850,-90.0250,10.0,2.7,302.0,4.3,'11111222,11111222,11111222' 
LOOP,urn:ioos:station:wmo:lopl1:1,2012-07-02T19:51:00Z,28.8850,-90.0250,10.0,2.5,278.0,4.0,'11111222,11111222,11111222' 
LOOP,urn:ioos:station:wmo:lopl1:1,2012-07-02T20:06:00Z,28.8850,-90.0250,10.0,1.9,281.0,3.6,'11111222,11111222,11111222' 
LOOP,urn:ioos:station:wmo:lopl1:1,2012-07-02T20:21:00Z,28.8850,-90.0250,10.0,2.1,270.0,3.2,'11111222,11111222,11111222' 
LOOP,urn:ioos:station:wmo:lopl1:1,2012-07-02T20:36:00Z,28.8850,-90.0250,10.0,2.8,286.0,3.8,'11111222,11111222,11111222' 
LOOP,urn:ioos:station:wmo:lopl1:1,2012-07-02T20:51:00Z,28.8850,-90.0250,10.0,2.7,295.0,3.6,'11111222,11111222,11111222' 
LOOP,urn:ioos:station:wmo:lopl1:1,2012-07-02T21:06:00Z,28.8850,-90.0250,10.0,2.8,291.0,5.2,'11111222,11111222,11111222' 
LOOP,urn:ioos:station:wmo:lopl1:1,2012-07-02T21:21:00Z,28.8850,-90.0250,10.0,2.7,281.0,3.5,'11111222,11111222,11111222' 
LOOP,urn:ioos:station:wmo:lopl1:1,2012-07-02T21:36:00Z,28.8850,-90.0250,10.0,3.1,283.0,4.1,'11111222,11111222,11111222' 
LOOP,urn:ioos:station:wmo:lopl1:1,2012-07-02T21:51:00Z,28.8850,-90.0250,10.0,2.9,283.0,3.5,'11111222,11111222,11111222' 
LOOP,urn:ioos:station:wmo:lopl1:1,2012-07-02T22:21:00Z,28.8850,-90.0250,10.0,3.1,271.0,3.7,'11111222,11111222,11111222' 
LOOP,urn:ioos:station:wmo:lopl1:1,2012-07-02T22:36:00Z,28.8850,-90.0250,10.0,3.3,263.0,3.8,'11111222,11111222,11111222' 
LOOP,urn:ioos:station:wmo:lopl1:1,2012-07-02T22:51:00Z,28.8850,-90.0250,10.0,2.7,270.0,3.3,'11111222,11111222,11111222' 
LOOP,urn:ioos:station:wmo:lopl1:1,2012-07-02T23:11:00Z,28.8850,-90.0250,10.0,2.7,265.0,3.4,'11111222,11111222,11111222' 
LOOP,urn:ioos:station:wmo:lopl1:1,2012-07-02T23:26:00Z,28.8850,-90.0250,10.0,2.7,271.0,3.3,'11111222,11111222,11111222' 
LOOP,urn:ioos:station:wmo:lopl1:1,2012-07-02T23:41:00Z,28.8850,-90.0250,10.0,2.4,253.0,3.4,'11111222,11111222,11111222' 
LOOP,urn:ioos:station:wmo:lopl1:1,2012-07-02T23:56:00Z,28.8850,-90.0250,10.0,2.9,272.0,3.3,'11111222,11111222,11111222' 
LOOP,urn:ioos:station:wmo:lopl1:1,2012-07-03T00:11:00Z,28.8850,-90.0250,10.0,2.4,258.0,3.3,'11111222,11111222,11111222' 
LOOP,urn:ioos:station:wmo:lopl1:1,2012-07-03T00:26:00Z,28.8850,-90.0250,10.0,3.0,242.0,3.9,'11111222,11111222,11111222' 
LOOP,urn:ioos:station:wmo:lopl1:1,2012-07-03T00:41:00Z,28.8850,-90.0250,10.0,3.8,260.0,4.9,'11111222,11111222,11111222' 
LOOP,urn:ioos:station:wmo:lopl1:1,2012-07-03T00:56:00Z,28.8850,-90.0250,10.0,3.3,235.0,4.9,'11111222,11111222,11111222' 
LOOP,urn:ioos:station:wmo:lopl1:1,2012-07-03T01:11:00Z,28.8850,-90.0250,10.0,3.6,240.0,4.4,'11111222,11111222,11111222' 
LOOP,urn:ioos:station:wmo:lopl1:1,2012-07-03T01:26:00Z,28.8850,-90.0250,10.0,4.1,251.0,5.4,'11111222,11111222,11111222' 
LOOP,urn:ioos:station:wmo:lopl1:1,2012-07-03T01:46:00Z,28.8850,-90.0250,10.0,4.9,250.0,5.9,'11111222,11111222,11111222' 
LOOP,urn:ioos:station:wmo:lopl1:1,2012-07-03T02:01:00Z,28.8850,-90.0250,10.0,5.3,251.0,6.9,'11111222,11111222,11111222' 
LOOP,urn:ioos:station:wmo:lopl1:1,2012-07-03T02:16:00Z,28.8850,-90.0250,10.0,4.6,255.0,5.7,'11111222,11111222,11111222' 
LOOP,urn:ioos:station:wmo:lopl1:1,2012-07-03T02:31:00Z,28.8850,-90.0250,10.0,4.7,260.0,6.0,'11111222,11111222,11111222' 
LOOP,urn:ioos:station:wmo:lopl1:1,2012-07-03T02:46:00Z,28.8850,-90.0250,10.0,5.2,257.0,5.8,'11111222,11111222,11111222' 